[[{"header":{"parameterUnit":"m.s-1","parameterCategory":1,"la1":30.2992,"la2":30.254,"lo1":-89.0895,"lo2":-89.0443,"dy":0.0025,"dx":0.0025,"nx":19,"ny":19,"refTime":"2026-05-03T03:00:00:Z","depth":0,"parameterNumber":2,"parameterNumberName":"U-component_of_WINDS"},"data":[0,0,0,-1.1567,-1.1572,-1.1808,-1.1808,-1.2133,-1.2136,0,0,0,0,0,0,0,0,0,0,0,-1.1509,-1.1511,-1.1566,-1.1573,-1.1808,-1.1809,-1.2133,-1.2137,0,0,0,0,0,0,0,0,0,0,0,-1.1508,-1.1511,-1.1514,-1.1573,-1.1807,-1.1809,-1.2132,-1.1947,0,0,0,0,0,0,0,0,0,0,-1.1714,-1.1672,-1.151,-1.1514,-1.1575,-1.1807,-1.1809,-1.1937,-1.1958,-1.2036,0,-1.2106,0,-1.2126,-1.216,-1.2161,0,0,0,-1.1565,-1.1655,-1.1707,-1.1514,-1.1577,-1.1807,-1.1699,-1.1949,-1.1973,-1.2064,-1.2111,-1.2122,-1.2132,-1.2162,-1.2163,-1.2635,-1.2637,0,0,-1.1552,-1.1559,-1.1691,-1.1723,-1.1685,-1.1692,-1.1707,-1.1963,-1.2015,-1.2112,-1.2129,-1.2137,-1.2164,-1.2167,-1.2632,-1.2635,0,0,0,-1.152,-1.155,-1.1595,-1.171,-1.175,-1.1699,-1.1716,-1.2004,-1.2018,-1.2133,-1.2141,-1.2166,-1.217,-1.2629,-1.2633,-1.277,0,0,0,-1.1511,-1.1531,-1.159,-1.1597,-1.1746,-1.188,-1.1752,-1.2,-1.2029,-1.2139,-1.2166,-1.2174,-1.2626,-1.2631,-1.276,-1.2836,0,0,0,-1.149,-1.1528,-1.1566,-1.1597,-1.1698,-1.1875,-1.1904,-1.2006,-1.2035,-1.2161,-1.2175,-1.2624,-1.263,-1.2751,-1.2821,-1.2966,0,0,0,-1.1469,-1.1684,-1.1568,-1.1811,-1.1696,-1.1955,-1.1902,-1.2095,-1.222,-1.2168,-1.2627,-1.2633,-1.2749,-1.2812,-1.2956,-1.3092,-1.3148,0,0,-1.1744,-1.1717,-1.1859,-1.1763,-1.2045,-1.1919,-1.2223,-1.233,-1.2336,-1.2535,-1.2547,-1.2764,-1.282,-1.2964,-1.3447,-1.3491,0,0,0,-1.1949,-1.2053,-1.2125,-1.2243,-1.2329,-1.2411,-1.247,-1.251,-1.2679,-1.2439,-1.2851,-1.2885,-1.2969,-1.3034,-1.3072,-1.3146,-1.2661,-1.2661,-1.266,-1.2354,-1.2348,-1.2584,-1.2607,-1.2722,-1.2781,-1.2875,-1.2939,-1.29,-1.2998,-1.306,-1.3353,-1.3429,-1.3457,-1.3534,-1.3125,-1.3126,-1.3126,-1.3127,-1.2761,-1.2909,-1.2849,-1.3059,-1.3052,-1.3228,-1.3293,-1.3259,-1.3425,-1.3306,-1.338,-1.3256,-1.3506,-1.3574,-1.3137,-1.3135,-1.3134,-1.3133,-1.3132,-1.3031,-1.3101,-1.3143,-1.3313,-1.3445,-1.346,-1.3622,-1.3608,-1.3597,-1.3669,-1.3736,-1.3734,-1.3735,-1.37,-1.3702,-1.3703,-1.3703,-1.3704,-1.3705,-1.3297,-1.334,-1.3477,-1.3585,-1.3659,-1.3755,-1.3815,-1.3889,-1.3968,-1.3946,-1.3947,-1.3903,-1.3528,-1.3439,-1.3721,-1.3718,-1.3716,-1.3714,-1.3713,-1.3724,-1.3625,-1.3837,-1.3911,-1.4038,-1.4172,-1.415,-1.4302,-1.436,-1.4441,-1.4378,-1.4102,-1.4075,-1.4045,-1.3972,-1.4375,-1.4375,-1.4375,-1.4375,-1.3957,-1.3939,-1.4154,-1.4274,-1.439,-1.4392,-1.4636,-1.4684,-1.4719,-1.4756,-1.4693,-1.4592,-1.4561,-1.4553,-1.4512,-1.4443,-1.4958,-1.4958,-1.4959,-1.4222,-1.4215,-1.4425,-1.4455,-1.4552,-1.4637,-1.4867,-1.501,-1.5028,-1.4982,-1.4786,-1.4761,-1.4596,-1.4542,-1.4499,-1.4436,-1.4309,0,0]},{"header":{"parameterUnit":"m.s-1","parameterCategory":1,"la1":30.2992,"la2":30.254,"lo1":-89.0895,"lo2":-89.0443,"dy":0.0025,"dx":0.0025,"nx":19,"ny":19,"refTime":"2026-05-03T03:00:00:Z","depth":0,"parameterNumber":3,"parameterNumberName":"V-component_of_WINDS"},"data":[0,0,0,-3.7074,-3.7079,-3.7298,-3.7299,-3.7581,-3.7584,0,0,0,0,0,0,0,0,0,0,0,-3.7013,-3.7015,-3.7074,-3.708,-3.7298,-3.7299,-3.7581,-3.7584,0,0,0,0,0,0,0,0,0,0,0,-3.7012,-3.7015,-3.7017,-3.708,-3.7297,-3.7299,-3.758,-3.7414,0,0,0,0,0,0,0,0,0,0,-3.7201,-3.7148,-3.7014,-3.7017,-3.7082,-3.7297,-3.7299,-3.7406,-3.7424,-3.7484,0,-3.7539,0,-3.7566,-3.7603,-3.7604,0,0,0,-3.7077,-3.7133,-3.7189,-3.7018,-3.7084,-3.7297,-3.7199,-3.7416,-3.7437,-3.7509,-3.7543,-3.7554,-3.7571,-3.7605,-3.7606,-3.7963,-3.7965,0,0,-3.7065,-3.7054,-3.7174,-3.7203,-3.717,-3.7192,-3.7205,-3.7429,-3.7465,-3.7545,-3.756,-3.7576,-3.7607,-3.7609,-3.7961,-3.7964,0,0,0,-3.7032,-3.7046,-3.7096,-3.7191,-3.723,-3.7198,-3.7214,-3.7456,-3.7473,-3.7563,-3.7579,-3.7609,-3.7612,-3.796,-3.7962,-3.8041,0,0,0,-3.7025,-3.7027,-3.7091,-3.7087,-3.7226,-3.7346,-3.7236,-3.7457,-3.7483,-3.7578,-3.7609,-3.7615,-3.7958,-3.7961,-3.8035,-3.808,0,0,0,-3.6998,-3.7023,-3.7056,-3.7086,-3.7179,-3.7343,-3.7373,-3.7463,-3.7493,-3.7604,-3.7616,-3.7956,-3.796,-3.8029,-3.8071,-3.8171,0,0,0,-3.6966,-3.7123,-3.7057,-3.7239,-3.7177,-3.739,-3.7371,-3.753,-3.7635,-3.761,-3.7958,-3.7962,-3.8027,-3.8065,-3.8165,-3.8254,-3.829,0,0,-3.7158,-3.7146,-3.7254,-3.7201,-3.7423,-3.7357,-3.759,-3.7696,-3.7716,-3.7879,-3.7888,-3.8037,-3.807,-3.817,-3.8495,-3.8523,0,0,0,-3.7311,-3.7388,-3.7449,-3.7549,-3.7634,-3.771,-3.7782,-3.7821,-3.796,-3.7798,-3.81,-3.812,-3.8179,-3.8222,-3.8247,-3.8298,-3.7981,-3.7981,-3.798,-3.7569,-3.7586,-3.7765,-3.7808,-3.7905,-3.7977,-3.8057,-3.8121,-3.811,-3.8181,-3.823,-3.8425,-3.8475,-3.8494,-3.8547,-3.8278,-3.8278,-3.8279,-3.8279,-3.7853,-3.7965,-3.7946,-3.8113,-3.813,-3.827,-3.8344,-3.8331,-3.8463,-3.839,-3.8443,-3.8361,-3.8524,-3.8572,-3.8285,-3.8284,-3.8283,-3.8283,-3.8282,-3.8025,-3.8081,-3.8126,-3.8272,-3.8381,-3.8419,-3.8547,-3.8557,-3.8568,-3.862,-3.8672,-3.8671,-3.8671,-3.8644,-3.8644,-3.8645,-3.8646,-3.8646,-3.8647,-3.8185,-3.8233,-3.834,-3.8443,-3.8508,-3.8594,-3.8667,-3.8731,-3.8804,-3.8801,-3.8802,-3.8784,-3.8537,-3.8475,-3.8657,-3.8655,-3.8654,-3.8653,-3.8652,-3.8469,-3.8406,-3.8571,-3.8636,-3.8757,-3.8865,-3.8876,-3.9005,-3.9059,-3.9122,-3.9092,-3.8908,-3.8895,-3.8876,-3.8825,-3.9087,-3.9087,-3.9087,-3.9087,-3.8614,-3.8608,-3.8779,-3.8883,-3.8985,-3.9011,-3.9196,-3.9253,-3.9303,-3.9337,-3.93,-3.9233,-3.9213,-3.9213,-3.9186,-3.9139,-3.9475,-3.9475,-3.9476,-3.8789,-3.8794,-3.8951,-3.8998,-3.9093,-3.9173,-3.9348,-3.9466,-3.9509,-3.9491,-3.9364,-3.9348,-3.9239,-3.9203,-3.9184,-3.9143,-3.9056,0,0]}]]